Greenville, MS

11:24 AM CST on December 03, 2016 (GMT -0600)
Mid Delta Regional

Weather History for KGLH - April, 2014

Change the Weather History Date:

Wednesday, April 2, 2014

  Actual Average Record
Temperature  
Mean Temperature 71 °F 59 °F  
Max Temperature 78 °F 70 °F 89 °F (1963)
Min Temperature 64 °F 48 °F 31 °F (1924)
Degree Days  
Heating Degree Days 0 7  
Month to date heating degree days 0 14  
Since 1 July heating degree days 3041 2659  
Cooling Degree Days 6 1  
Month to date cooling degree days 7 2  
Year to date cooling degree days 12 24  
Growing Degree Days 20 (Base 50)    
Moisture  
Dew Point 63 °F    
Average Humidity 79    
Maximum Humidity 93    
Minimum Humidity 64    
Precipitation  
Precipitation 0.02 in 0.20 in 1.64 in (2000)
Month to date precipitation 0.02 0.41  
Year to date precipitation 9.83 14.95  
Sea Level Pressure  
Sea Level Pressure 29.99 in    
Wind  
Wind Speed 12 mph (South)    
Max Wind Speed 21 mph    
Max Gust Speed 25 mph    
Visibility 9 miles    
Events Rain    
T = Trace of Precipitation, MM = Missing Value Source: NWS Daily Summary

Daily Weather History Graph

Daily Weather History Graph

Search for Another Location

Airport or City:

Trip Planner

Search our weather history database for the weather conditions in past years. The results will help you decide how hot, cold, wet, or windy it might be!

Date:

Astronomy

Apr. 02, 2014 Rise Set
Actual Time 6:50 AM CDT 7:25 PM CDT
Civil Twilight 6:25 AM CDT 7:50 PM CDT
Nautical Twilight 5:55 AM CDT 8:19 PM CDT
Astronomical Twilight 5:25 AM CDT 8:49 PM CDT
Moon 8:42 AM CDT (4/2) 10:39 PM CDT (4/2)
Length of Visible Light 13h 25m
Length of Day
12h 34m
Waxing Crescent, 10% of the Moon is Illuminated
Apr 2
Waxing Crescent
Apr 7
First Quarter
Apr 15
Full
Apr 22
Last Quarter
Apr 29
New

Hourly Weather History & Observations

Time (CDT) Temp. Dew Point Humidity Pressure Visibility Wind Dir Wind Speed Gust Speed Precip Events Conditions
12:53 AM 68.0 °F 59.0 °F 73% 30.00 in 10.0 mi South 8.1 mph - N/A   Overcast
1:53 AM 66.9 °F 60.1 °F 79% 30.01 in 10.0 mi South 9.2 mph - N/A   Overcast
2:53 AM 66.9 °F 61.0 °F 81% 30.00 in 10.0 mi South 6.9 mph - N/A   Overcast
3:53 AM 66.9 °F 62.1 °F 84% 30.00 in 10.0 mi South 9.2 mph - N/A   Overcast
4:53 AM 64.9 °F 61.0 °F 87% 30.00 in 9.0 mi South 10.4 mph - N/A   Clear
5:39 AM 64.4 °F 62.6 °F 94% 29.99 in 9.0 mi South 8.1 mph - N/A   Mostly Cloudy
5:53 AM 64.9 °F 61.0 °F 87% 30.01 in 9.0 mi South 11.5 mph - N/A   Mostly Cloudy
6:17 AM 64.4 °F 60.8 °F 88% 29.99 in 8.0 mi South 9.2 mph - N/A   Mostly Cloudy
7:53 AM 64.9 °F 62.1 °F 90% 30.04 in 8.0 mi South 10.4 mph - N/A   Overcast
8:21 AM 66.2 °F 62.6 °F 88% 30.02 in 8.0 mi South 10.4 mph - N/A   Overcast
8:53 AM 68.0 °F 62.1 °F 81% 30.04 in 8.0 mi South 12.7 mph - N/A   Overcast
9:53 AM 69.1 °F 63.0 °F 81% 30.04 in 8.0 mi South 11.5 mph - N/A   Overcast
10:43 AM 71.6 °F 64.4 °F 78% 30.02 in 9.0 mi South 17.3 mph - N/A   Overcast
10:53 AM 71.1 °F 63.0 °F 75% 30.04 in 9.0 mi South 18.4 mph - N/A   Overcast
11:53 AM 72.0 °F 63.0 °F 73% 30.04 in 9.0 mi South 19.6 mph - N/A   Overcast
12:53 PM 70.0 °F 64.0 °F 81% 30.03 in 8.0 mi South 11.5 mph - 0.00 in Rain Light Rain
1:53 PM 71.1 °F 66.0 °F 84% 29.99 in 8.0 mi South 12.7 mph - 0.02 in Rain Light Rain
2:53 PM 73.0 °F 66.0 °F 79% 29.97 in 8.0 mi South 10.4 mph - 0.00 in Rain Light Rain
3:53 PM 75.0 °F 66.0 °F 73% 29.95 in 10.0 mi SSE 11.5 mph - 0.00 in   Partly Cloudy
4:53 PM 77.0 °F 66.0 °F 69% 29.94 in 10.0 mi South 13.8 mph - N/A   Mostly Cloudy
5:53 PM 77.0 °F 64.9 °F 66% 29.93 in 10.0 mi South 10.4 mph - N/A   Clear
6:53 PM 77.0 °F 64.9 °F 66% 29.93 in 9.0 mi South 6.9 mph - N/A   Mostly Cloudy
7:53 PM 75.9 °F 64.9 °F 69% 29.93 in 10.0 mi SSE 9.2 mph - N/A   Mostly Cloudy
8:53 PM 73.9 °F 64.9 °F 73% 29.93 in 10.0 mi SSE 9.2 mph - N/A   Clear
9:53 PM 73.0 °F 64.9 °F 76% 29.93 in 10.0 mi South 11.5 mph - N/A   Clear
10:53 PM 73.9 °F 64.0 °F 71% 29.94 in 10.0 mi SSE 13.8 mph - N/A   Clear
11:53 PM 72.0 °F 63.0 °F 73% 29.94 in 10.0 mi South 12.7 mph - N/A   Clear